THORAD AGENA D DEB, 4679

Orbit data source: Space-Track

THORAD AGENA D DEB, 4679 is space debris in SSO originally from a launch on Wed, 08 Apr 1970 UTC launched from the Air Force Western Test Range (AFWTR). Debris objects in space refer to the collection of defunct objects orbiting the Earth. Examples of debris include non-operational satellites, rocket bodies, and fragments generated from explosions, collisions, or faulty payload assembly.

Loading next visibility...
Identifier
4679, 1970-025BC
Orbit
SSO
Country
Flag of USUS
Related business
Manufacturer
Unknown
Mission
Spacecraft
Bus & Motor
Unknown
Mass
Unknown
Launch date (UTC)
1970-04-08 (56 years ago)
Launch vehicle
Unknown
Launch site
Air Force Western Test Range (AFWTR)
Object type
Payload
Rocket body
Debris
Shape & HBR
Unknown shape, 0.1 m
Radar Cross Section
Small (<0.1 m²)

Expand to show TLE details & history
Last TLE update: 8 hours ago

TLE from 8 hours ago
0 THORAD AGENA D DEB
1  4679U 70025BC  26034.05788108  .00000459  00000-0  59208-3 0  9997
2  4679 100.1788 207.5581 0018020 177.5487 305.0633 13.68557827771873
Epoch: 2026-02-03T01:23Z
TLE epoch observation values (Epoch: 2026-02-03T01:23:20.925Z)
Latitude
56.26371°
Longitude
-111.01039°
Altitude
1,006.412 km
Speed
7.358 km/s
True Right ascension
02h 52m 17s
True Declination
56° 06' 36"
Sunlit
Object was in daylight at epoch
Visualization orbit readout
Latitude
Unknown
Longitude
Unknown
Altitude
Unknown
Speed
Unknown
Apparent Right ascension
Unknown
Apparent Declination
Unknown
Sunlit
N/A
Visualization observer readout
Local Sidereal Time
11:41:59
Azimuth
Unknown
Elevation
Unknown
Doppler factor
Unknown
Orbital elements
Apogee altitude
1,015.354 km
Perigee altitude
988.756 km
Semi-major axis
7,380.192 km
Eccentricity
0.0018
Inclination
100.1788°
RAAN
207.5581°
Arg. of periapsis
177.5487°
True anomaly
304.89406°
Mean anomaly
305.0633°
Eccentric anomaly
304.9787°
Mean motion
3.42327 °/min
Orbital period
105.16 mins
BSTAR
0.00059208
Loading maneuver chart data...
Computing Atmospheric mass density...

Documentation

Showing up to 5 results
|